{"data":{"norad_id":67859,"intl_designator":"2026-034K","name":"STARLINK-36393","alt_names":[],"object_type":"PAYLOAD","status":"ACTIVE","operator":null,"country":"US","launch_date":"2026-02-20","launch_site_code":"AFETR","launch_vehicle":null,"mission":null,"orbit_class":"UNKNOWN","rcs_meters":null,"size_class":null,"mass_kg":null,"dimensions":null,"purposes":["comms"],"wikipedia_slug":null,"has_3d_model":false,"image_url":null,"decayed_at":null,"tle_current":{"epoch":"2026-09-19T19:29:34.673568Z","epoch_age_seconds":125948,"freshness":"FRESH","line1":"1 67859U 26034K   26262.81220687  .00015070  00000+0  49598-3 0  9992","line2":"2 67859  53.1590  20.6467 0001024  66.2001 293.9107 15.31726417 33786","mean_motion":15.31726417,"eccentricity":0.0001024,"inclination_deg":53.159,"raan_deg":20.6467,"arg_perigee_deg":66.2001,"mean_anomaly_deg":293.9107,"bstar":0.00049598,"rev_number":3378,"period_min":94.011566557711,"perigee_km":469.95993171439,"apogee_km":471.36256559571,"semimajor_km":6848.7982486551,"source":"CELESTRAK","updated_at":"2026-09-20T09:00:43.675286Z"}}}